Weather History for KBNW - November, 2012

Change the Weather History Date:

Thursday, November 15, 2012

  Actual Average Record
Temperature  
Mean Temperature 48 °F -  
Max Temperature 61 °F 47 °F 73 °F (1990)
Min Temperature 34 °F 26 °F 5 °F (1959)
Degree Days  
Heating Degree Days 17    
Moisture  
Dew Point 32 °F    
Average Humidity 55    
Maximum Humidity 82    
Minimum Humidity 33    
Precipitation  
Precipitation 0.00 in - - ()
Sea Level Pressure  
Sea Level Pressure 30.29 in    
Wind  
Wind Speed 9 mph (West)    
Max Wind Speed 14 mph    
Max Gust Speed 17 mph    
Visibility 10 miles    
Events      
Averages and records for this station are not official NWS values.
T = Trace of Precipitation, MM = Missing Value Source: NWS Daily Summary

Daily Weather History Graph

Daily Weather History Graph

Search for Another Location

Airport or City:

Trip Planner

Search our weather history database for the weather conditions in past years. The results will help you decide how hot, cold, wet, or windy it might be!

Date:

Astronomy

Nov. 15, 2012 Rise Set
Actual Time 7:06 AM CST 4:53 PM CST
Civil Twilight 6:35 AM CST 5:23 PM CST
Nautical Twilight 6:02 AM CST 5:57 PM CST
Astronomical Twilight 5:29 AM CST 6:30 PM CST
Moon 9:03 AM CST (11/15) 6:44 PM CST (11/15)
Length of Visible Light 10h 47m
Length of Day
9h 47m
Waxing Crescent, 5% of the Moon is Illuminated
Nov 15
Waxing Crescent
Nov 20
First Quarter
Nov 28
Full
Dec 6
Last Quarter
Dec 13
New

Hourly Weather History & Observations

Time (CST) Temp. Windchill Dew Point Humidity Pressure Visibility Wind Dir Wind Speed Gust Speed Precip Events Conditions
12:15 AM 46.6 °F - 28.2 °F 49% 30.24 in 10.0 mi South 9.2 mph - N/A   Overcast
12:35 AM 46.4 °F 42.4 °F 28.4 °F 50% 30.24 in 10.0 mi South 8.1 mph - N/A   Mostly Cloudy
12:55 AM 45.9 °F 41.7 °F 28.9 °F 52% 30.23 in 10.0 mi South 8.1 mph - N/A   Scattered Clouds
1:15 AM 44.6 °F 41.4 °F 30.2 °F 57% 30.23 in 10.0 mi South 5.8 mph - N/A   Scattered Clouds
1:35 AM 45.3 °F 41.6 °F 29.5 °F 54% 30.22 in 10.0 mi South 6.9 mph - N/A   Scattered Clouds
1:55 AM 45.5 °F 41.8 °F 29.7 °F 54% 30.23 in 10.0 mi South 6.9 mph - N/A   Mostly Cloudy
2:15 AM 45.0 °F 41.2 °F 29.7 °F 55% 30.23 in 10.0 mi South 6.9 mph - N/A   Mostly Cloudy
2:35 AM 45.5 °F 41.8 °F 29.1 °F 53% 30.23 in 10.0 mi South 6.9 mph - N/A   Scattered Clouds
2:55 AM 44.8 °F 41.0 °F 29.7 °F 55% 30.23 in 10.0 mi South 6.9 mph - N/A   Scattered Clouds
3:15 AM 45.0 °F 40.6 °F 29.8 °F 55% 30.23 in 10.0 mi South 8.1 mph - N/A   Mostly Cloudy
3:35 AM 45.0 °F 41.2 °F 29.8 °F 55% 30.22 in 10.0 mi South 6.9 mph - N/A   Clear
3:55 AM 45.0 °F 40.6 °F 29.8 °F 55% 30.22 in 10.0 mi South 8.1 mph - N/A   Mostly Cloudy
4:15 AM 45.0 °F 40.1 °F 29.8 °F 55% 30.22 in 10.0 mi South 9.2 mph - N/A   Overcast
4:35 AM 44.8 °F 40.4 °F 29.8 °F 56% 30.22 in 10.0 mi South 8.1 mph - N/A   Mostly Cloudy
4:55 AM 44.2 °F 40.3 °F 30.2 °F 58% 30.22 in 10.0 mi South 6.9 mph - N/A   Scattered Clouds
5:15 AM 45.3 °F 41.6 °F 30.2 °F 56% 30.23 in 10.0 mi South 6.9 mph - N/A   Mostly Cloudy
5:35 AM 44.6 °F 41.4 °F 30.4 °F 57% 30.23 in 10.0 mi South 5.8 mph - N/A   Overcast
5:55 AM 43.7 °F 39.7 °F 30.9 °F 61% 30.23 in 10.0 mi South 6.9 mph - N/A   Overcast
6:15 AM 44.1 °F 40.1 °F 31.1 °F 60% 30.22 in 10.0 mi South 6.9 mph - N/A   Overcast
6:35 AM 45.3 °F 41.6 °F 30.6 °F 56% 30.23 in 10.0 mi SSW 6.9 mph - N/A   Overcast
6:55 AM 45.5 °F 40.8 °F 30.7 °F 56% 30.23 in 10.0 mi SSW 9.2 mph - N/A   Scattered Clouds
7:15 AM 46.0 °F 40.6 °F 30.2 °F 54% 30.23 in 10.0 mi SSW 11.5 mph - N/A   Scattered Clouds
7:35 AM 46.0 °F 41.0 °F 30.2 °F 54% 30.24 in 10.0 mi SW 10.4 mph - N/A   Scattered Clouds
7:55 AM 45.9 °F 40.8 °F 30.9 °F 56% 30.25 in 10.0 mi SW 10.4 mph - N/A   Clear
8:15 AM 46.8 °F - 31.6 °F 56% 30.26 in 10.0 mi SW 10.4 mph - N/A   Clear
8:35 AM 47.3 °F - 32.0 °F 55% 30.26 in 10.0 mi WSW 10.4 mph - N/A   Clear
8:55 AM 48.4 °F - 32.0 °F 53% 30.26 in 10.0 mi WSW 11.5 mph - N/A   Clear
9:15 AM 49.8 °F - 32.0 °F 50% 30.26 in 10.0 mi WSW 10.4 mph - N/A   Clear
9:35 AM 50.4 °F - 32.2 °F 50% 30.27 in 10.0 mi WSW 10.4 mph - N/A   Clear
9:55 AM 50.9 °F - 32.2 °F 49% 30.27 in 10.0 mi WSW 9.2 mph - N/A   Clear
10:15 AM 52.0 °F - 32.5 °F 48% 30.28 in 10.0 mi WSW 12.7 mph 17.3 mph N/A   Scattered Clouds
10:35 AM 53.1 °F - 32.7 °F 46% 30.28 in 10.0 mi West 9.2 mph - N/A   Scattered Clouds
10:55 AM 54.3 °F - 33.3 °F 45% 30.28 in 10.0 mi West 6.9 mph - N/A   Clear
11:15 AM 55.4 °F - 33.4 °F 43% 30.28 in 10.0 mi West 6.9 mph - N/A   Clear
11:35 AM 56.5 °F - 34.0 °F 43% 30.28 in 10.0 mi West 6.9 mph - N/A   Clear
11:55 AM 57.2 °F - 34.0 °F 42% 30.28 in 10.0 mi WNW 9.2 mph - N/A   Clear
12:15 PM 57.6 °F - 34.0 °F 41% 30.27 in 10.0 mi WNW 9.2 mph - N/A   Clear
12:35 PM 58.8 °F - 33.8 °F 39% 30.27 in 10.0 mi West 9.2 mph - N/A   Clear
12:55 PM 59.5 °F - 34.5 °F 39% 30.27 in 10.0 mi WNW 10.4 mph - N/A   Clear
1:15 PM 60.1 °F - 34.0 °F 38% 30.26 in 10.0 mi WNW 8.1 mph - N/A   Clear
1:35 PM 60.3 °F - 33.6 °F 37% 30.26 in 10.0 mi WNW 9.2 mph - N/A   Clear
1:55 PM 60.8 °F - 32.7 °F 35% 30.26 in 10.0 mi NW 8.1 mph - N/A   Clear
2:15 PM 60.8 °F - 32.9 °F 35% 30.26 in 10.0 mi WNW 5.8 mph - N/A   Clear
2:35 PM 61.0 °F - 32.2 °F 34% 30.27 in 10.0 mi WNW 9.2 mph - N/A   Clear
2:55 PM 60.8 °F - 31.8 °F 34% 30.27 in 10.0 mi NNW 10.4 mph - N/A   Clear
3:15 PM 60.1 °F - 31.1 °F 33% 30.28 in 10.0 mi North 10.4 mph - N/A   Clear
3:35 PM 59.5 °F - 31.6 °F 35% 30.28 in 10.0 mi NNW 10.4 mph - N/A   Clear
3:55 PM 58.3 °F - 32.0 °F 37% 30.29 in 10.0 mi North 11.5 mph - N/A   Clear
4:15 PM 57.0 °F - 33.8 °F 42% 30.30 in 10.0 mi North 8.1 mph - N/A   Clear
4:55 PM 51.6 °F - 35.6 °F 54% 30.32 in 10.0 mi NNW 8.1 mph - N/A   Clear
5:15 PM 48.7 °F - 35.6 °F 60% 30.33 in 10.0 mi NNW 6.9 mph - N/A   Clear
5:55 PM 49.1 °F - 34.9 °F 58% 30.34 in 10.0 mi NNW 8.1 mph - N/A   Clear
6:15 PM 47.5 °F - 34.2 °F 60% 30.35 in 10.0 mi NNW 8.1 mph - N/A   Clear
6:35 PM 45.9 °F 42.3 °F 33.8 °F 63% 30.36 in 10.0 mi NNW 6.9 mph - N/A   Clear
6:55 PM 44.1 °F 40.1 °F 33.3 °F 66% 30.37 in 10.0 mi NNW 6.9 mph - N/A   Clear
7:35 PM 43.2 °F 37.4 °F 33.1 °F 68% 30.38 in 10.0 mi NNW 10.4 mph - N/A   Clear
7:55 PM 42.3 °F 36.3 °F 33.3 °F 70% 30.38 in 10.0 mi NNW 10.4 mph - N/A   Clear
8:15 PM 41.7 °F 36.1 °F 33.3 °F 72% 30.39 in 10.0 mi NNW 9.2 mph - N/A   Clear
8:35 PM 39.7 °F 32.7 °F 33.1 °F 77% 30.39 in 10.0 mi NNW 11.5 mph - N/A   Clear
8:55 PM 40.3 °F 33.4 °F 33.3 °F 76% 30.40 in 10.0 mi North 11.5 mph - N/A   Clear
9:15 PM 40.6 °F 33.8 °F 33.1 °F 74% 30.40 in 10.0 mi North 11.5 mph - N/A   Clear
9:35 PM 39.7 °F 33.2 °F 32.7 °F 76% 30.40 in 10.0 mi North 10.4 mph - N/A   Clear
9:55 PM 38.8 °F 33.8 °F 32.0 °F 76% 30.41 in 10.0 mi North 6.9 mph - N/A   Clear
10:15 PM 38.3 °F 30.9 °F 32.0 °F 78% 30.41 in 10.0 mi North 11.5 mph - N/A   Clear
10:35 PM 36.7 °F 29.4 °F 31.5 °F 81% 30.41 in 10.0 mi NNW 10.4 mph - N/A   Clear
10:55 PM 36.7 °F 28.0 °F 31.1 °F 80% 30.42 in 10.0 mi NNW 13.8 mph - N/A   Clear
11:15 PM 35.8 °F 28.3 °F 30.7 °F 82% 30.42 in 10.0 mi NNW 10.4 mph - N/A   Clear
11:35 PM 35.1 °F 26.9 °F 30.0 °F 82% 30.42 in 10.0 mi NNW 11.5 mph - N/A   Clear
11:55 PM 34.7 °F 26.4 °F 29.5 °F 81% 30.42 in 10.0 mi NNW 11.5 mph - N/A   Clear